Hourly Data Report for October 03, 2017

All times are specified in Local Standard Time (LST). Add 1 hour to adjust for Daylight Saving Time where and when it is observed.

BACCARO PT
NOVA SCOTIA

43°27'03.000" N
65°28'18.000" W
4.60 m
8200255
71920
ACP

Download Data

Hourly Data (October 2017)
Hourly Data Report for October 3, 2017
Temp Definition
°C
Dew Point Temp Definition
°C
Rel Hum Definition
%
Wind Dir Definition
10's deg

Wind Spd Definition
km/h
Visibility Definition
km
Stn Press Definition
kPa
Hmdx Definition


Wind Chill Definition


Weather Definition


TIME
00:00 8.7 5.2 79 4 27   103.28     LegendNANA
01:00 8.5 5.3 81 4 26   103.33     LegendNANA
02:00 7.9 5.1 83 3 24   103.35     LegendNANA
03:00 7.3 4.9 84 3 22   103.39     LegendNANA
04:00 7.5 5.2 86 3 25   103.43     LegendNANA
05:00 4.2 2.8 91 34 11   103.51     LegendNANA
06:00 3.1 2.6 96 34 14   103.58     LegendNANA
07:00 4.6 4.3 98 36 13   103.64     LegendNANA
08:00 7.5 5.9 90 1 14   103.67     LegendNANA
09:00 10.4 6.8 78 2 19   103.69     LegendNANA
10:00 12.6 7.7 72 2 12   103.69     LegendNANA
11:00 13.6 6.2 61 3 12   103.71     LegendNANA
12:00 14.3 6.8 61 9 10   103.67     LegendNANA
13:00 14.2 6.7 61 13 8   103.63     LegendNANA
14:00 14.4 7.3 62 23 11   103.63     LegendNANA
15:00 13.9 8.0 68 25 20   103.60     LegendNANA
16:00 13.5 8.0 69 25 22   103.49     LegendNANA
17:00 13.0 8.2 73 26 24   103.42     LegendNANA
18:00 12.0 8.3 78 29 23   103.42     LegendNANA
19:00 11.7 8.1 78 28 19   103.35     LegendNANA
20:00 12.2 8.4 78 27 19   103.29     LegendNANA
21:00 12.3 7.3 71 27 20   103.29     LegendNANA
22:00 12.3 7.5 72 27 20   103.23     LegendNANA
23:00 12.6 8.0 74 26 20   103.21     LegendNANA

Notes on Data Quality.

Legend

  • E = Estimated
  • M = Missing
  • NA = Not Available
  • ‡ = Partner data that is not subject to review by the National Climate Archives
Date modified: